{"data":{"norad_id":48787,"epoch":"2026-05-25T00:44:08.230848Z","epoch_age_seconds":86180,"freshness":"FRESH","line1":"1 48787U 21045W   26145.03065082  .00000009  00000+0 -10757-4 0  9991","line2":"2 48787  87.9002 263.7970 0001851  72.5036 287.6296 13.15549719241275","mean_motion":13.15549719,"eccentricity":0.0001851,"inclination_deg":87.9002,"raan_deg":263.797,"arg_perigee_deg":72.5036,"mean_anomaly_deg":287.6296,"bstar":-1.0757e-5,"rev_number":24127,"period_min":109.45994508627,"perigee_km":1200.3632370172,"apogee_km":1203.1693172104,"semimajor_km":7579.9032771138,"source":"CELESTRAK","updated_at":"2026-05-25T13:38:22.445656Z"}}